Flag for Greece Weather past 2 weeks in Kallithea, Greece

Now
73 °F

Passing clouds.


Feels Like: 77 °F
Forecast: 61 / 75 °F
Wind: 12 mph from South

Location: Elefsis Airport

Current Time: Oct 22, 2014 at 6:57:20 PM

Latest Report: Oct 22, 2014 at 5:50 PM


Visibility: N/A

Pressure: 29.71 "Hg

Humidity: 44%

Dew point: 50 °F

Location of KallitheaLocation

Historic Weather in Kallithea — Graph

°F

Kallithea temperature yesterday

Maximum temperature yesterday: 77 °F (at 3:20 PM)
Minimum temperature yesterday: 54 °F (at 4:50 AM)
Average temperature yesterday: 64 °F

Past Weeks' High & Low Weather Summary

 TemperatureHumidityPressure
High88 °F (Oct 16, 3:50 PM)100% (Oct 22, 10:20 AM)30.30 "Hg (Oct 22, 10:20 AM)
Low36 °F (Oct 22, 10:20 AM)22% (Oct 16, 3:50 PM)29.71 "Hg (Oct 22, 4:50 PM)
Average69 °F57%30.04 "Hg
* Reported Oct 7 5:20 PM — Oct 22 5:20 PM, Kallithea, Weather by CustomWeather, © 2014

Note: Actual official high and low records may vary slightly from our data, if they occured in-between our weather recording intervals... More about our weather records

Advertising

Kallithea weather history for previous 24 hours

 ConditionsComfort  
Time TempWeatherWind HumidityBarometerVisibility
5:20 PM
Oct 22
73 °FPassing clouds.12 mph47%29.71 "HgN/A
4:50 PM73 °FPassing clouds.12 mph44%29.71 "HgN/A
4:20 PM75 °FPassing clouds.14 mph44%29.74 "HgN/A
3:50 PM75 °FPassing clouds.12 mph44%29.74 "HgN/A
3:20 PM75 °FPassing clouds.14 mph41%29.74 "HgN/A
2:50 PM75 °FPassing clouds.12 mph47%29.74 "HgN/A
2:20 PM75 °FPassing clouds.12 mph47%29.77 "HgN/A
1:50 PM75 °FPassing clouds.12 mph44%29.77 "HgN/A
1:20 PM73 °FPassing clouds.9 mph47%29.77 "HgN/A
12:50 PM73 °FPassing clouds.9 mph47%29.77 "HgN/A
12:20 PM75 °FPassing clouds.9 mph44%29.80 "HgN/A
11:50 AM73 °FPassing clouds.8 mph47%29.80 "HgN/A
11:20 AM72 °FPassing clouds.9 mph50%29.80 "HgN/A
10:50 AM70 °FPassing clouds.7 mph60%29.80 "HgN/A
10:20 AM36 °FPassing clouds.No wind100%29.80 "HgN/A
9:50 AM68 °FSunny.No wind60%29.80 "Hg10 mi
9:20 AM63 °FSunny.No wind73%29.80 "Hg10 mi
8:50 AM59 °FSunny.No wind82%29.80 "Hg10 mi
8:20 AM55 °FClear.6 mph88%29.80 "Hg10 mi
7:50 AM55 °FClear.7 mph82%29.80 "Hg10 mi
7:20 AM54 °FClear.7 mph88%29.80 "Hg10 mi
6:50 AM54 °FClear.5 mph88%29.80 "Hg10 mi
6:20 AM54 °FClear.5 mph88%29.80 "Hg10 mi
5:50 AM54 °FClear.5 mph88%29.80 "Hg10 mi
5:20 AM55 °FClear.6 mph82%29.83 "Hg10 mi
4:50 AM55 °FClear.6 mph82%29.83 "Hg10 mi
4:20 AM55 °FClear.6 mph82%29.83 "Hg10 mi
3:20 AM55 °FClear.5 mph67%29.83 "Hg10 mi
2:50 AM55 °FClear.6 mph82%29.83 "Hg10 mi
2:20 AM57 °FClear.6 mph77%29.86 "Hg10 mi
1:50 AM57 °FClear.6 mph77%29.86 "Hg10 mi
1:20 AM57 °FClear.6 mph77%29.89 "Hg10 mi
12:50 AM57 °FClear.6 mph77%29.89 "Hg10 mi
12:20 AM59 °FClear.7 mph72%29.89 "Hg10 mi
11:50 PM
Oct 21
59 °FClear.7 mph72%29.89 "Hg10 mi
11:20 PM59 °FClear.7 mph72%29.89 "Hg10 mi
10:50 PM59 °FClear.7 mph72%29.89 "Hg10 mi
10:20 PM61 °FClear.7 mph68%29.89 "Hg10 mi
9:50 PM61 °FClear.7 mph68%29.89 "Hg10 mi
9:20 PM61 °FClear.6 mph72%29.89 "Hg10 mi
8:50 PM64 °FClear.6 mph64%29.89 "Hg10 mi
8:20 PM64 °FClear.No wind68%29.89 "Hg10 mi
7:50 PM68 °FClear.No wind60%29.89 "Hg10 mi
7:20 PM66 °FSunny.9 mph60%29.89 "Hg10 mi
6:50 PM68 °FSunny.9 mph60%29.89 "Hg10 mi
6:20 PM72 °FSunny.12 mph53%29.89 "Hg10 mi
Weather by CustomWeather, © 2014

See weather overviewHow to use our weather pages